Wind_Speed
17 18 18 18 18 19 18 18 18 17 17 18 18 19 19 19 19 20 20 20 20 19 19 19 19 20 20 20 20 20 20 20 20 20 20 20 21 21
18 19 19 19 19 19 19 19 18 18 18 18 20 20 20 20 20 20 20 20 20 20 21 21 21 21 21 20 20 20 20 20 20 20 21 21 21 22
20 20 20 20 21 20 20 20 20 20 19 20 21 22 22 22 21 21 21 21 20 20 21 21 21 21 21 21 20 20 20 20 21 21 22 22 22 23
21 21 21 21 21 21 21 20 21 21 21 21 22 23 23 23 22 22 21 22 21 21 21 22 22 22 22 21 21 21 21 21 21 22 22 22 23 23
22 23 22 22 22 21 21 21 22 22 22 22 23 24 24 24 24 23 23 23 23 22 23 23 23 23 22 22 22 22 22 22 22 22 23 23 24 24
24 24 23 23 23 23 23 23 23 23 24 24 24 23 24 24 25 24 24 24 24 24 23 24 24 24 23 23 23 23 23 23 24 24 24 24 25 25
25 25 25 25 25 25 24 24 24 24 24 25 25 25 25 25 25 25 25 25 24 24 24 24 24 24 25 24 24 24 23 23 24 24 25 25 25 26
27 26 26 25 25 25 25 25 25 25 25 25 25 26 25 26 26 26 26 26 25 24 24 24 24 24 25 24 24 24 24 24 24 24 25 25 26 26
29 28 27 26 26 26 25 26 26 26 26 26 26 26 25 25 26 26 26 26 26 25 25 24 24 24 25 24 24 24 24 24 24 24 25 25 25 25
29 28 28 27 26 27 27 26 26 26 25 26 26 25 25 25 25 26 26 26 26 26 25 25 25 25 24 24 24 24 24 24 24 24 24 24 24 24
28 28 28 27 27 27 27 26 26 26 26 26 26 26 25 26 26 26 26 26 26 26 25 25 25 24 24 24 24 24 24 24 24 24 23 24 24 25
28 28 28 27 27 27 27 27 26 26 26 27 27 27 26 26 26 26 26 26 26 25 25 25 25 25 24 24 24 25 25 24 24 24 24 24 25 25
27 27 27 28 27 27 26 26 26 26 26 26 27 27 27 26 26 26 26 25 25 25 25 25 25 24 24 24 24 25 25 25 24 24 24 24 25 25
26 26 26 27 27 27 26 26 26 26 26 26 26 26 26 26 26 26 26 25 25 25 25 25 25 24 24 24 24 24 24 24 24 24 24 24 25 25
26 26 26 27 28 28 26 26 26 26 26 26 26 26 26 25 25 26 25 25 25 25 24 24 24 24 24 25 25 25 25 25 25 25 25 24 24 24
26 26 26 27 27 27 27 26 25 25 25 26 27 26 25 25 26 26 25 25 25 25 25 25 25 25 25 25 25 26 25 24 24 24 25 25 25 24
25 25 25 25 25 25 25 25 25 26 26 26 26 26 25 25 25 25 25 25 25 25 25 25 25 26 26 25 26 26 26 25 25 25 25 25 25 25
23 23 24 24 25 25 25 26 26 27 27 27 26 26 25 25 26 26 26 26 27 26 26 26 26 26 26 26 26 26 26 25 25 25 24 24 25 26
23 24 24 23 23 24 24 25 26 26 26 26 26 26 25 26 26 26 27 27 27 27 26 26 27 26 26 26 26 26 26 27 27 26 26 26 25 26
23 23 24 23 23 23 23 24 25 25 25 25 25 25 26 26 27 27 28 28 28 28 28 27 27 27 27 27 27 26 27 27 27 27 27 27 27 27
23 23 23 24 24 24 24 25 25 25 25 25 25 25 26 26 26 27 28 29 28 28 28 28 28 28 28 28 28 28 28 28 28 28 28 28 27 27
23 23 23 24 25 26 26 26 26 25 25 25 26 26 26 27 27 28 28 28 28 28 28 29 29 29 28 28 28 29 28 28 28 28 28 28 28 28
23 23 23 23 24 25 25 25 24 24 25 26 26 27 27 27 27 26 26 27 27 27 27 27 27 28 28 28 28 28 28 28 28 29 29 28 28 28
Wind_Direction
270 270 271 271 273 273 274 273 271 269 270 271 271 273 275 276 276 276 276 276 276 278 280 281 282 283 282 280 278 274 270 270 270 269 268 267 266 268
276 277 274 275 272 273 274 274 273 271 270 270 270 271 275 277 277 278 277 278 277 278 279 280 282 282 281 280 278 276 275 272 270 269 269 268 266 266
276 277 275 277 273 273 274 272 272 272 271 270 270 272 274 278 277 278 277 277 278 279 280 279 280 281 282 280 278 277 278 274 272 271 270 270 268 266
276 275 276 276 275 274 274 272 271 271 270 271 271 272 275 277 277 277 278 278 278 278 279 278 279 280 281 281 279 278 278 276 276 273 271 270 270 269
276 274 275 275 275 273 273 272 271 271 271 272 273 273 273 275 276 276 278 278 278 277 277 278 278 278 278 280 280 279 277 275 275 272 271 271 270 269
276 275 274 274 274 272 272 273 273 272 272 273 273 274 273 274 274 274 276 278 277 276 277 278 278 278 277 278 279 278 278 276 275 273 273 273 271 270
275 276 275 274 273 271 270 272 272 273 273 273 273 274 274 274 273 273 274 276 277 277 278 278 278 277 276 276 278 278 277 276 276 275 275 274 271 270
274 275 276 275 274 271 271 271 272 273 273 274 274 274 274 274 274 273 273 274 275 277 278 278 277 276 277 277 277 278 277 277 278 278 276 275 272 272
273 274 274 274 273 271 271 271 272 272 274 274 274 274 275 275 274 273 273 274 274 275 276 276 274 275 276 277 276 278 278 280 280 279 276 276 274 272
271 272 271 270 272 271 270 270 271 273 274 274 274 274 274 275 275 274 274 273 273 272 273 274 274 274 275 275 276 278 278 280 281 281 278 276 276 275
270 271 269 268 270 270 270 271 272 273 272 273 272 272 273 274 274 273 273 271 269 270 271 272 272 271 275 275 277 277 277 278 279 280 279 277 277 277
269 270 268 268 270 269 268 269 270 271 271 272 271 272 273 273 273 272 271 269 269 269 269 270 270 272 275 276 276 275 276 277 279 280 279 278 277 278
266 268 268 267 267 268 267 268 268 268 269 270 270 271 271 271 270 269 270 268 269 269 269 269 270 272 274 277 277 277 276 277 277 277 278 277 277 279
266 267 268 266 267 267 267 267 268 269 270 271 271 269 270 271 271 269 269 269 269 270 270 270 270 271 273 276 278 278 277 278 278 279 279 278 277 278
266 267 267 267 268 267 268 267 267 270 271 270 270 270 271 270 271 269 269 269 269 271 271 270 270 271 274 276 277 277 278 279 279 280 279 279 279 279
267 265 266 267 268 269 269 269 270 270 269 268 268 269 270 272 272 271 270 270 269 269 270 269 268 270 272 274 274 276 276 279 279 280 281 280 280 280
267 266 267 269 269 270 268 269 269 268 269 271 271 270 271 273 274 274 273 272 270 269 269 269 269 271 273 273 274 275 275 277 279 279 281 281 280 279
265 266 269 270 270 271 270 269 268 269 270 272 272 271 271 272 273 272 273 273 271 271 271 271 271 271 271 272 272 274 276 278 279 280 281 280 280 280
265 267 267 269 270 270 269 269 269 270 271 272 271 270 271 272 273 272 272 273 272 272 271 271 271 270 270 271 271 273 276 277 278 279 280 280 280 280
265 264 264 266 267 268 270 271 271 271 272 272 272 272 273 273 273 272 272 271 272 271 269 269 269 269 269 271 273 276 276 277 277 277 276 278 278 279
264 262 263 265 267 268 271 272 272 272 272 272 271 272 273 273 273 274 275 272 272 271 269 268 268 267 268 270 272 275 276 278 277 276 276 277 278 279
269 268 267 269 270 269 270 272 272 272 271 270 270 271 273 274 275 275 274 273 272 270 269 269 268 268 269 271 273 275 277 278 278 276 275 276 277 278
271 272 272 273 272 272 271 271 272 272 271 270 271 272 273 274 274 274 273 273 272 270 269 271 270 269 269 270 273 275 276 278 278 277 276 276 277 279
Height
5830 5830 5829 5828 5828 5828 5827 5827 5827 5827 5827 5826 5826 5825 5825 5824 5824 5824 5823 5823 5823 5822 5821 5821 5820 5819 5818 5817 5816 5815 5815 5814 5814 5814 5814 5815 5815 5814
5825 5825 5824 5823 5823 5823 5822 5822 5822 5822 5821 5821 5821 5820 5820 5819 5819 5819 5818 5818 5817 5817 5816 5815 5814 5814 5813 5812 5811 5810 5809 5809 5809 5809 5809 5809 5809 5809
5820 5819 5819 5818 5818 5817 5817 5817 5816 5816 5816 5816 5815 5815 5814 5814 5813 5813 5813 5812 5812 5811 5810 5810 5809 5808 5807 5806 5805 5804 5803 5803 5803 5803 5803 5803 5803 5803
5815 5814 5813 5812 5812 5811 5811 5811 5810 5810 5810 5810 5809 5809 5808 5808 5807 5807 5807 5806 5806 5805 5804 5804 5803 5802 5801 5800 5799 5798 5797 5797 5797 5796 5797 5797 5797 5796
5809 5808 5807 5806 5806 5805 5805 5804 5804 5804 5804 5804 5803 5803 5802 5801 5801 5801 5800 5800 5799 5799 5798 5797 5796 5795 5795 5794 5793 5792 5791 5791 5790 5790 5790 5790 5790 5790
5803 5802 5801 5800 5799 5799 5798 5798 5798 5797 5797 5797 5797 5796 5796 5795 5794 5794 5794 5794 5793 5792 5792 5791 5790 5789 5788 5787 5786 5786 5785 5784 5784 5783 5783 5783 5783 5783
5796 5795 5794 5793 5792 5792 5792 5791 5791 5791 5790 5790 5790 5789 5789 5788 5788 5788 5787 5787 5786 5785 5785 5784 5783 5782 5781 5781 5780 5779 5778 5778 5777 5776 5776 5776 5775 5775
5789 5788 5787 5786 5785 5785 5785 5784 5784 5784 5783 5783 5782 5782 5782 5781 5781 5780 5780 5780 5780 5779 5778 5777 5776 5775 5774 5774 5773 5772 5772 5771 5770 5769 5769 5768 5768 5768
5781 5780 5779 5779 5778 5778 5777 5777 5777 5777 5776 5776 5775 5775 5775 5774 5774 5773 5773 5772 5772 5772 5771 5770 5769 5769 5768 5767 5766 5765 5765 5764 5763 5762 5761 5761 5761 5760
5773 5772 5772 5772 5771 5770 5770 5770 5769 5769 5769 5768 5768 5768 5768 5767 5766 5766 5765 5765 5765 5764 5764 5763 5762 5762 5761 5760 5759 5759 5758 5758 5757 5756 5754 5754 5754 5753
5764 5764 5764 5764 5763 5762 5762 5762 5762 5762 5761 5761 5761 5760 5760 5759 5759 5758 5758 5757 5757 5757 5756 5756 5755 5755 5754 5754 5753 5752 5751 5751 5750 5749 5748 5747 5746 5746
5755 5755 5756 5756 5755 5754 5754 5754 5754 5754 5753 5753 5752 5752 5752 5751 5751 5750 5750 5749 5749 5749 5749 5749 5748 5748 5748 5747 5746 5745 5744 5744 5743 5742 5741 5740 5739 5739
5747 5747 5747 5747 5747 5746 5746 5746 5746 5745 5745 5744 5744 5744 5744 5743 5743 5742 5742 5742 5742 5742 5742 5741 5741 5741 5741 5740 5739 5739 5738 5737 5736 5735 5734 5733 5732 5731
5739 5739 5739 5739 5739 5738 5738 5739 5738 5737 5737 5737 5736 5736 5736 5735 5735 5735 5734 5734 5734 5734 5734 5734 5734 5734 5734 5733 5733 5732 5731 5730 5729 5728 5727 5726 5725 5724
5732 5732 5731 5731 5730 5730 5730 5730 5729 5729 5729 5729 5728 5728 5728 5727 5727 5727 5726 5726 5726 5726 5726 5726 5727 5727 5727 5726 5725 5725 5724 5723 5722 5721 5720 5719 5718 5717
5723 5724 5723 5723 5722 5722 5722 5721 5721 5721 5720 5720 5720 5720 5720 5719 5718 5718 5718 5718 5718 5719 5719 5719 5719 5719 5719 5718 5718 5717 5716 5715 5715 5713 5712 5711 5711 5710
5716 5716 5716 5715 5715 5714 5713 5713 5713 5713 5713 5712 5712 5712 5712 5711 5711 5711 5710 5710 5710 5710 5710 5711 5711 5711 5711 5710 5710 5709 5709 5708 5707 5706 5705 5704 5703 5702
5709 5709 5708 5708 5707 5707 5706 5705 5705 5705 5705 5704 5704 5703 5703 5703 5703 5703 5702 5702 5702 5702 5702 5702 5702 5702 5702 5702 5702 5701 5700 5700 5699 5698 5697 5696 5695 5694
5702 5702 5701 5701 5700 5699 5698 5698 5698 5697 5696 5696 5695 5695 5695 5695 5695 5694 5694 5694 5693 5693 5693 5694 5693 5693 5694 5694 5693 5693 5692 5692 5691 5690 5689 5688 5687 5686
5695 5694 5694 5693 5693 5692 5691 5690 5690 5689 5688 5688 5687 5687 5687 5686 5686 5686 5686 5685 5685 5685 5684 5685 5685 5685 5685 5685 5685 5684 5684 5683 5682 5681 5680 5679 5678 5677
5687 5687 5686 5685 5685 5684 5683 5683 5682 5681 5680 5680 5679 5679 5678 5678 5678 5677 5677 5676 5676 5676 5676 5676 5676 5676 5676 5676 5676 5675 5674 5674 5673 5672 5671 5670 5669 5668
5680 5679 5678 5678 5676 5676 5675 5674 5674 5673 5672 5672 5671 5670 5670 5669 5669 5668 5668 5667 5667 5667 5667 5667 5667 5667 5667 5667 5667 5666 5665 5664 5663 5662 5662 5661 5660 5659
5673 5672 5671 5670 5669 5668 5667 5666 5665 5664 5664 5663 5663 5662 5661 5661 5660 5660 5659 5658 5658 5658 5658 5657 5657 5657 5658 5657 5657 5656 5656 5655 5654 5653 5652 5651 5651 5650